一网星座-0136星 (ONEWEB-0136 )

导读

ONEWEB-0136是英国主导的OneWeb星座下的低轨互联网通信卫星,于2020年12月18日发射,属于OneWeb破产重组后的首批组网卫星之一。该卫星运行在近地轨道,依托OneWeb“弯管式”架构,为全球偏远地区提供高速低延迟的宽带互联网接入服务,是英国推进太空战略、构建全球卫星网络的重要组成部分,助力OneWeb完成第一代星座组网部署。

基本信息
目录编号:
47282
目录名称:
ONEWEB-0136
国际标识:
2020-100AA
轨道中心:
EARTH
卫星名称:
一网星座-0136星
卫星全名:
一网星座-0136星 (ONEWEB-0136 )
卫星状态:
在轨 (已飞行2002 天)
发射日期:
2020-12-18 UTC
国别 :
英国 (GB)
星等 :
--
轨道信息
数据来源 国际轨道数据 AOE轨道数据
星历时间 2026-06-12T13:40:02+0800
14小时前
查看轨道信息
2026-06-11T17:00:00+0800
1天前
查看轨道信息
半长轴 7591.86km 7591.848km
偏心率 0.0001552 0.0001489
轨道倾角 87.895° 87.895°
近地点辐角 97.043° 104.026°
升交点赤经 351.634° 351.807°
平近点角 263.088° 149.722°
近地点 1212.544km 1212.58km
远地点 1214.902km 1214.842km
周期 109.719分钟 109.719分钟
每日圈数 13.124432 13.124464
详细信息
平衡模式:
三轴稳定
覆盖范围:
全球
运营商:
一网卫星公司
运营商所在国:
英国
制造商(研发单位):
一网卫星公司
制造商所在国:
英国
使用方式:
暂无
卫星简介
OneWeb卫星网络由648颗重约125公斤的微型卫星组成,运行在1200公里的轨道上。 每颗卫星都能够提供至少每秒8千兆位的吞吐量,以使用其高吞吐量的Ku频段有效载荷为家庭和移动平台提供互联网接入。该卫星仍在工作。
2D轨道图
3D轨道图
轨道高度分析图
轨道倾角分析图
轨道综合分析图
查看轨道综合分析图